When you browse on this site, cookies collect data to enhance your experience and personalize the content and advertising you see.
Visit our Privacy Policy to learn more. By continuing to use the site, you agree to this use of cookies and data.
  • En España
  • Lista de países
  • Para 7 días
  • Temperatura del agua
  • Mapa Satelital
  • El tiempo en el mapa
  • Informadores
  • user-avatar
    Iniciar sesión

    Tiempo cada hora Kolda

    Hoy, 22 Abril, Lunes

    Tiempo Temperatura Precipitaciones Viento Presión Humedad
    00:00 +30°C° 0 mm 2 mps 755 mmHg 32%
    01:00 +29°C° 0 mm 2 mps 755 mmHg 34%
    02:00 +28°C° 0 mm 2 mps 755 mmHg 36%
    03:00 +28°C° 0 mm 2 mps 755 mmHg 36%
    04:00 +27°C° 0 mm 2 mps 755 mmHg 37%
    05:00 +26°C° 0 mm 1 mps 755 mmHg 38%
    06:00 +27°C° 0 mm 1 mps 755 mmHg 34%
    07:00 +28°C° 0 mm 2 mps 756 mmHg 31%
    08:00 +30°C° 0 mm 2 mps 756 mmHg 28%
    09:00 +34°C° 0 mm 2 mps 756 mmHg 23%
    10:00 +38°C° 0 mm 2 mps 755 mmHg 17%
    11:00 +40°C° 0 mm 2 mps 755 mmHg 13%
    12:00 +41°C° 0 mm 2 mps 755 mmHg 12%
    13:00 +42°C° 0 mm 2 mps 754 mmHg 11%
    14:00 +45°C° 0 mm 3 mps 753 mmHg 10%
    15:00 +44°C° 0 mm 3 mps 753 mmHg 11%
    16:00 +44°C° 0 mm 3 mps 752 mmHg 11%
    17:00 +43°C° 0 mm 3 mps 752 mmHg 12%
    18:00 +40°C° 0 mm 2 mps 752 mmHg 14%
    19:00 +38°C° 0 mm 2 mps 753 mmHg 17%
    20:00 +36°C° 0 mm 2 mps 753 mmHg 19%
    21:00 +35°C° 0 mm 2 mps 753 mmHg 22%
    22:00 +34°C° 0 mm 3 mps 754 mmHg 25%
    23:00 +33°C° 0 mm 3 mps 754 mmHg 27%

    Mañana, 23 Abril, Martes

    Tiempo Temperatura Precipitaciones Viento Presión Humedad
    00:00 +31°C° 0 mm 3 mps 754 mmHg 29%
    01:00 +30°C° 0 mm 3 mps 754 mmHg 30%
    02:00 +28°C° 0 mm 3 mps 754 mmHg 31%
    03:00 +27°C° 0 mm 3 mps 754 mmHg 33%
    04:00 +26°C° 0 mm 3 mps 754 mmHg 34%
    05:00 +25°C° 0 mm 2 mps 754 mmHg 36%
    06:00 +27°C° 0 mm 2 mps 755 mmHg 35%
    07:00 +28°C° 0 mm 2 mps 755 mmHg 33%
    08:00 +29°C° 0 mm 2 mps 755 mmHg 32%
    09:00 +34°C° 0 mm 2 mps 755 mmHg 26%
    10:00 +37°C° 0 mm 2 mps 755 mmHg 19%
    11:00 +41°C° 0 mm 2 mps 755 mmHg 13%
    12:00 +42°C° 0 mm 2 mps 754 mmHg 13%
    13:00 +43°C° 0 mm 2 mps 753 mmHg 13%
    14:00 +45°C° 0 mm 3 mps 752 mmHg 12%
    15:00 +44°C° 0 mm 3 mps 752 mmHg 13%
    16:00 +44°C° 0 mm 3 mps 752 mmHg 13%
    17:00 +43°C° 0 mm 3 mps 751 mmHg 14%
    18:00 +40°C° 0 mm 3 mps 752 mmHg 16%
    19:00 +38°C° 0 mm 3 mps 753 mmHg 18%
    20:00 +36°C° 0 mm 3 mps 753 mmHg 20%
    21:00 +34°C° 0 mm 3 mps 754 mmHg 25%
    22:00 +33°C° 0 mm 3 mps 754 mmHg 30%
    23:00 +30°C° 0 mm 3 mps 754 mmHg 34%

    Pasado mañana, 24 Abril, Miércoles

    Tiempo Temperatura Precipitaciones Viento Presión Humedad
    00:00 +29°C° 0 mm 2 mps 754 mmHg 37%
    01:00 +28°C° 0 mm 2 mps 754 mmHg 39%
    02:00 +27°C° 0 mm 2 mps 754 mmHg 42%
    03:00 +26°C° 0 mm 1 mps 754 mmHg 44%
    04:00 +26°C° 0 mm 1 mps 754 mmHg 45%
    05:00 +25°C° 0 mm 1 mps 754 mmHg 47%
    06:00 +27°C° 0 mm 1 mps 755 mmHg 41%
    07:00 +29°C° 0 mm 1 mps 755 mmHg 35%
    08:00 +30°C° 0 mm 1 mps 756 mmHg 30%
    09:00 +34°C° 0 mm 1 mps 756 mmHg 24%
    10:00 +39°C° 0 mm 1 mps 756 mmHg 18%
    11:00 +43°C° 0 mm 1 mps 756 mmHg 12%
    12:00 +44°C° 0 mm 1 mps 755 mmHg 12%
    13:00 +44°C° 0 mm 1 mps 754 mmHg 11%
    14:00 +46°C° 0 mm 2 mps 753 mmHg 11%
    15:00 +45°C° 0 mm 2 mps 753 mmHg 12%
    16:00 +43°C° 0 mm 2 mps 752 mmHg 13%
    17:00 +42°C° 0 mm 2 mps 752 mmHg 13%
    18:00 +40°C° 0 mm 2 mps 753 mmHg 15%
    19:00 +38°C° 0 mm 2 mps 753 mmHg 17%
    20:00 +36°C° 0 mm 2 mps 754 mmHg 19%
    21:00 +35°C° 0 mm 2 mps 755 mmHg 23%
    22:00 +32°C° 0 mm 2 mps 755 mmHg 27%
    23:00 +31°C° 0 mm 2 mps 756 mmHg 31%

    25 Abril, Jueves

    Tiempo Temperatura Precipitaciones Viento Presión Humedad
    00:00 +30°C° 0 mm 2 mps 755 mmHg 34%
    01:00 +29°C° 0 mm 2 mps 755 mmHg 38%
    02:00 +27°C° 0 mm 1 mps 754 mmHg 42%
    03:00 +27°C° 0 mm 1 mps 755 mmHg 44%
    04:00 +26°C° 0 mm 1 mps 755 mmHg 46%
    05:00 +25°C° 0 mm 1 mps 755 mmHg 48%
    06:00 +27°C° 0 mm 1 mps 755 mmHg 42%
    07:00 +29°C° 0 mm 1 mps 756 mmHg 37%
    08:00 +31°C° 0 mm 1 mps 757 mmHg 31%
    09:00 +35°C° 0 mm 1 mps 756 mmHg 25%
    10:00 +39°C° 0 mm 1 mps 756 mmHg 19%
    11:00 +43°C° 0 mm 1 mps 756 mmHg 13%
    12:00 +44°C° 0 mm 1 mps 755 mmHg 13%
    13:00 +45°C° 0 mm 1 mps 754 mmHg 12%
    14:00 +46°C° 0 mm 1 mps 753 mmHg 11%
    15:00 +45°C° 0 mm 1 mps 753 mmHg 11%
    16:00 +44°C° 0 mm 1 mps 753 mmHg 12%
    17:00 +43°C° 0 mm 1 mps 752 mmHg 13%
    18:00 +41°C° 0 mm 2 mps 753 mmHg 15%
    19:00 +39°C° 0 mm 2 mps 754 mmHg 17%
    20:00 +37°C° 0 mm 3 mps 755 mmHg 19%
    21:00 +35°C° 0 mm 3 mps 755 mmHg 22%
    22:00 +33°C° 0 mm 3 mps 755 mmHg 25%
    23:00 +30°C° 0 mm 3 mps 756 mmHg 28%

    26 Abril, Viernes

    Tiempo Temperatura Precipitaciones Viento Presión Humedad
    00:00 +29°C° 0 mm 2 mps 755 mmHg 31%
    01:00 +28°C° 0 mm 2 mps 755 mmHg 34%
    02:00 +27°C° 0 mm 1 mps 755 mmHg 38%
    03:00 +26°C° 0 mm 1 mps 755 mmHg 40%
    04:00 +26°C° 0 mm 1 mps 755 mmHg 42%
    05:00 +25°C° 0 mm 1 mps 755 mmHg 45%
    06:00 +27°C° 0 mm 1 mps 756 mmHg 40%
    07:00 +29°C° 0 mm 1 mps 756 mmHg 35%
    08:00 +31°C° 0 mm 1 mps 757 mmHg 29%
    09:00 +34°C° 0 mm 1 mps 757 mmHg 24%
    10:00 +39°C° 0 mm 1 mps 756 mmHg 19%
    11:00 +42°C° 0 mm 2 mps 756 mmHg 14%
    12:00 +43°C° 0 mm 2 mps 755 mmHg 13%
    13:00 +45°C° 0 mm 2 mps 754 mmHg 12%
    14:00 +46°C° 0 mm 2 mps 753 mmHg 11%
    15:00 +46°C° 0 mm 2 mps 753 mmHg 11%
    16:00 +45°C° 0 mm 2 mps 753 mmHg 12%
    17:00 +43°C° 0 mm 2 mps 752 mmHg 12%
    18:00 +41°C° 0 mm 2 mps 753 mmHg 14%
    19:00 +39°C° 0 mm 2 mps 754 mmHg 16%
    20:00 +37°C° 0 mm 2 mps 754 mmHg 18%
    21:00 +35°C° 0 mm 2 mps 755 mmHg 21%
    22:00 +34°C° 0 mm 3 mps 755 mmHg 24%
    23:00 +31°C° 0 mm 3 mps 755 mmHg 26%

    27 Abril, Sábado

    Tiempo Temperatura Precipitaciones Viento Presión Humedad
    00:00 +30°C° 0 mm 3 mps 755 mmHg 29%
    01:00 +29°C° 0 mm 2 mps 754 mmHg 32%
    02:00 +28°C° 0 mm 2 mps 754 mmHg 34%
    03:00 +27°C° 0 mm 2 mps 754 mmHg 36%
    04:00 +27°C° 0 mm 1 mps 754 mmHg 39%
    05:00 +26°C° 0 mm 1 mps 754 mmHg 41%
    06:00 +28°C° 0 mm 1 mps 755 mmHg 37%
    07:00 +29°C° 0 mm 2 mps 755 mmHg 33%
    08:00 +31°C° 0 mm 2 mps 756 mmHg 28%
    09:00 +35°C° 0 mm 2 mps 756 mmHg 23%
    10:00 +39°C° 0 mm 2 mps 755 mmHg 19%
    11:00 +42°C° 0 mm 2 mps 755 mmHg 14%
    12:00 +43°C° 0 mm 2 mps 754 mmHg 13%
    13:00 +45°C° 0 mm 2 mps 753 mmHg 12%
    14:00 +47°C° 0 mm 2 mps 752 mmHg 11%
    15:00 +46°C° 0 mm 2 mps 752 mmHg 11%
    16:00 +46°C° 0 mm 2 mps 752 mmHg 11%
    17:00 +45°C° 0 mm 2 mps 752 mmHg 11%
    18:00 +42°C° 0 mm 2 mps 753 mmHg 14%
    19:00 +39°C° 0 mm 2 mps 753 mmHg 16%
    20:00 +37°C° 0 mm 2 mps 754 mmHg 19%
    21:00 +35°C° 0 mm 2 mps 754 mmHg 22%
    22:00 +32°C° 0 mm 2 mps 755 mmHg 26%
    23:00 +31°C° 0 mm 2 mps 755 mmHg 30%
    Mostrar más